Location: Unspecified
(0.0000°N, 0.0000°E)
Time: 05:59:58
(UTC+00:00)

UGATUSAT - Visible Passes

Search period start: 08 June 2023 00:00
Search period end: 18 June 2023 00:00
Orbit: 814 x 819 km, 98.6° (Epoch: 07 June)

Date Brightness Start Highest point End Pass type
(mag) Time Alt. Az. Time Alt. Az. Time Alt. Az.
08 Jun ? 03:58:42 10° NNW 03:58:46 10° NNW 03:58:46 10° NNW visible
09 Jun ? 03:35:56 10° NNW 03:36:40 14° NNW 03:36:40 14° NNW visible
10 Jun ? 03:13:43 10° N 03:14:34 15° N 03:14:34 15° N visible
11 Jun ? 02:51:57 10° NNE 02:52:27 13° NNE 02:52:27 13° NNE visible
13 Jun ? 03:49:05 10° NNW 03:49:31 12° NNW 03:49:31 12° NNW visible
14 Jun ? 03:26:35 10° N 03:27:24 14° N 03:27:24 14° N visible
15 Jun ? 03:04:34 10° N 03:05:18 14° N 03:05:18 14° N visible
16 Jun ? 02:42:57 10° NNE 02:43:10 11° NNE 02:43:10 11° NNE visible
